TimeMDT,TemperatureF,Dew PointF,Humidity,Sea Level PressureIn,VisibilityMPH,Wind Direction,Wind SpeedMPH,Gust SpeedMPH,PrecipitationIn,Events,Conditions,WindDirDegrees,DateUTC
12:55 AM,37.0,32.0,82,29.89,10.0,WNW,3.5,-,N/A,,Clear,290,2013-09-26 06:55:00
1:55 AM,37.9,32.0,79,29.91,10.0,West,4.6,-,N/A,,Partly Cloudy,270,2013-09-26 07:55:00
2:55 AM,42.1,33.1,70,29.91,10.0,NW,3.5,-,N/A,,Overcast,320,2013-09-26 08:55:00
3:55 AM,42.1,35.1,76,29.93,10.0,NW,4.6,-,N/A,,Overcast,310,2013-09-26 09:55:00
4:55 AM,43.0,34.0,71,29.93,10.0,NW,3.5,-,N/A,,Scattered Clouds,310,2013-09-26 10:55:00
5:55 AM,42.1,34.0,73,29.95,10.0,Calm,Calm,-,N/A,,Overcast,0,2013-09-26 11:55:00
6:55 AM,42.1,34.0,73,29.97,10.0,Calm,Calm,-,N/A,,Mostly Cloudy,0,2013-09-26 12:55:00
7:55 AM,44.1,34.0,68,29.99,10.0,Calm,Calm,-,N/A,,Overcast,0,2013-09-26 13:55:00
8:55 AM,46.0,35.1,66,29.99,10.0,NNW,3.5,-,N/A,,Overcast,330,2013-09-26 14:55:00
9:55 AM,52.0,34.0,50,30.01,10.0,North,8.1,-,N/A,,Overcast,350,2013-09-26 15:55:00
10:55 AM,54.0,28.0,37,30.01,10.0,North,12.7,-,N/A,,Clear,10,2013-09-26 16:55:00
12:55 PM,54.0,28.0,37,30.02,10.0,NNE,6.9,-,N/A,,Mostly Cloudy,30,2013-09-26 18:55:00
1:55 PM,54.0,28.0,37,30.02,10.0,NNE,10.4,-,N/A,,Overcast,30,2013-09-26 19:55:00
2:55 PM,54.0,28.0,37,30.01,10.0,North,10.4,-,N/A,,Overcast,350,2013-09-26 20:55:00
3:55 PM,55.9,26.1,32,30.00,10.0,North,3.5,-,N/A,,Mostly Cloudy,360,2013-09-26 21:55:00
4:55 PM,57.0,28.9,34,29.99,10.0,NE,10.4,-,N/A,,Overcast,50,2013-09-26 22:55:00
5:55 PM,52.0,32.0,47,30.01,10.0,North,4.6,-,N/A,,Overcast,360,2013-09-26 23:55:00
6:55 PM,51.1,33.1,50,30.02,10.0,Calm,Calm,-,N/A,,Overcast,0,2013-09-27 00:55:00
7:55 PM,45.0,33.1,63,30.04,10.0,Calm,Calm,-,N/A,,Clear,0,2013-09-27 01:55:00
8:55 PM,39.9,34.0,79,30.06,10.0,Calm,Calm,-,N/A,,Clear,0,2013-09-27 02:55:00
9:55 PM,34.0,32.0,92,30.06,10.0,Calm,Calm,-,N/A,,Clear,0,2013-09-27 03:55:00
10:55 PM,32.0,30.0,92,30.06,10.0,NE,4.6,-,N/A,,Clear,40,2013-09-27 04:55:00
11:55 PM,33.1,30.0,89,30.04,10.0,Calm,Calm,-,N/A,,Clear,0,2013-09-27 05:55:00